Wind From: 11-12-2017 06:00 Until: 12-12-2017 06:00 warning for: Wind Level: Orange info button

Power and phone distribution networks may be disrupted for relatively long periods., Roofs and chimneys can be damaged. , Tree branches may break. , Vehicles can be deported. , Traffic may be disrupted, particularly on secondary roads in forest areas. Limit your trips. , Limit your speed in highway driving, especially if you drive a vehicle or hitch sensitive to wind. , Do not go for walks in forests or along the coast., In town, be vigilant against possible falling objects., Do not work on roofs and do not touch any electrical line fallen on the ground., Store or secure sensitive objects to wind or likely to be damaged., Always install power generators outside buildings. 


Meteo18 Weather Cam more information Meteo18 Weather Cam


Thunder radar more information blitzortung!


Rain radar more information rain snow radar


Visit our other weather sites:

Template documentation
and downloads

And another site



Weather Underground History page Text

Daily Summary for June 16, 2017 Units:  Metric    English   Both
« Previous Day
Next Day »
Daily Weekly Monthly Yearly Custom
  High: Low: Average:
Temperature: 23.7 °C 15.0 °C 19.8 °C
Dew Point: 13.5 °C 9.1 °C 11.6 °C
Humidity: 87 % 41 % 61 %
Wind Speed: 17.7 km/h 0.0 km/h 4.9 km/h
Wind Gust: 27.4 km/h - -
Wind:- - WSW
Pressure: 1027.3 hPa 1021.2 hPa -
Precipitation: 0.0 mm    
Historical Graphs
 
 
Tabular Data for June 16, 2017
Time Temperature Dew Point Pressure Wind Wind Speed Wind Gust Humidity Rainfall Rate (Hourly)
00:02 20.8 °C 11.4 °C 1021.2 hPa NW 1.6 km/h 11.3 km/h 55 % 0.0 mm
00:12 20.6 °C 11.2 °C 1021.6 hPa NNW 3.2 km/h 11.3 km/h 55 % 0.0 mm
00:17 20.5 °C 11.1 °C 1021.6 hPa NW 3.2 km/h 11.3 km/h 55 % 0.0 mm
00:22 20.4 °C 11.3 °C 1021.6 hPa NNW 1.6 km/h 8.0 km/h 56 % 0.0 mm
00:27 20.3 °C 11.2 °C 1021.6 hPa NNW 1.6 km/h 8.0 km/h 56 % 0.0 mm
00:32 20.2 °C 11.7 °C 1021.6 hPa NW 3.2 km/h 8.0 km/h 58 % 0.0 mm
00:37 20.1 °C 11.6 °C 1021.2 hPa NNW 1.6 km/h 8.0 km/h 58 % 0.0 mm
00:42 19.9 °C 11.6 °C 1021.6 hPa NNW 3.2 km/h 8.0 km/h 59 % 0.0 mm
00:47 19.8 °C 11.8 °C 1021.6 hPa NNW 4.8 km/h 6.4 km/h 60 % 0.0 mm
00:57 19.5 °C 12.0 °C 1021.6 hPa NNW 3.2 km/h 6.4 km/h 62 % 0.0 mm
01:02 19.4 °C 11.9 °C 1021.6 hPa NNW 1.6 km/h 6.4 km/h 62 % 0.0 mm
01:12 19.2 °C 12.0 °C 1021.6 hPa NW 1.6 km/h 4.8 km/h 63 % 0.0 mm
01:17 19.1 °C 11.9 °C 1021.6 hPa NW 6.4 km/h 6.4 km/h 63 % 0.0 mm
01:22 19.1 °C 11.9 °C 1021.9 hPa NNW 3.2 km/h 6.4 km/h 63 % 0.0 mm
01:27 19.1 °C 11.9 °C 1021.9 hPa NNW 3.2 km/h 6.4 km/h 63 % 0.0 mm
01:32 19.0 °C 11.6 °C 1021.9 hPa NNW 3.2 km/h 6.4 km/h 62 % 0.0 mm
01:37 18.9 °C 11.7 °C 1021.9 hPa NNW 3.2 km/h 8.0 km/h 63 % 0.0 mm
01:42 18.9 °C 11.7 °C 1021.9 hPa NNW 3.2 km/h 8.0 km/h 63 % 0.0 mm
01:47 18.8 °C 11.6 °C 1021.9 hPa WNW 3.2 km/h 8.0 km/h 63 % 0.0 mm
01:57 18.7 °C 11.8 °C 1022.2 hPa NW 3.2 km/h 9.7 km/h 64 % 0.0 mm
02:02 18.6 °C 11.9 °C 1022.2 hPa NNW 8.0 km/h 9.7 km/h 65 % 0.0 mm
02:12 18.4 °C 12.4 °C 1022.2 hPa WNW 3.2 km/h 9.7 km/h 68 % 0.0 mm
02:17 18.3 °C 12.5 °C 1022.2 hPa WNW 1.6 km/h 9.7 km/h 69 % 0.0 mm
02:22 18.3 °C 12.5 °C 1022.2 hPa WNW 3.2 km/h 11.3 km/h 69 % 0.0 mm
02:27 18.2 °C 12.6 °C 1022.2 hPa West 1.6 km/h 11.3 km/h 70 % 0.0 mm
02:32 18.2 °C 12.9 °C 1022.2 hPa NW 6.4 km/h 14.5 km/h 71 % 0.0 mm
02:37 18.3 °C 13.2 °C 1022.2 hPa North 6.4 km/h 14.5 km/h 72 % 0.0 mm
02:42 18.3 °C 13.2 °C 1022.2 hPa WNW 3.2 km/h 16.1 km/h 72 % 0.0 mm
02:47 18.3 °C 13.4 °C 1022.2 hPa NW 6.4 km/h 16.1 km/h 73 % 0.0 mm
02:57 18.2 °C 13.3 °C 1022.2 hPa NW 3.2 km/h 12.9 km/h 73 % 0.0 mm
03:02 18.1 °C 13.4 °C 1022.2 hPa WNW 4.8 km/h 11.3 km/h 74 % 0.0 mm
03:12 17.6 °C 13.1 °C 1022.6 hPa WNW 1.6 km/h 8.0 km/h 75 % 0.0 mm
03:17 17.4 °C 13.1 °C 1022.6 hPa WNW 1.6 km/h 8.0 km/h 76 % 0.0 mm
03:22 17.3 °C 13.0 °C 1022.6 hPa NW 3.2 km/h 8.0 km/h 76 % 0.0 mm
03:32 17.1 °C 13.0 °C 1022.6 hPa NNW 3.2 km/h 6.4 km/h 77 % 0.0 mm
03:37 16.9 °C 13.0 °C 1022.6 hPa Calm   6.4 km/h 78 % 0.0 mm
03:42 16.8 °C 12.9 °C 1022.9 hPa Calm   4.8 km/h 78 % 0.0 mm
03:47 16.7 °C 13.0 °C 1022.9 hPa Calm   4.8 km/h 79 % 0.0 mm
03:52 16.6 °C 13.1 °C 1022.9 hPa Calm   4.8 km/h 80 % 0.0 mm
03:57 16.6 °C 13.1 °C 1022.9 hPa WNW 1.6 km/h 4.8 km/h 80 % 0.0 mm
04:02 16.7 °C 13.2 °C 1022.9 hPa Calm   4.8 km/h 80 % 0.0 mm
04:12 16.7 °C 13.2 °C 1022.9 hPa NW 1.6 km/h 4.8 km/h 80 % 0.0 mm
04:17 16.7 °C 13.2 °C 1023.2 hPa NW 1.6 km/h 3.2 km/h 80 % 0.0 mm
04:22 16.6 °C 13.3 °C 1023.2 hPa Calm   4.8 km/h 81 % 0.0 mm
04:32 16.6 °C 13.5 °C 1023.2 hPa North 3.2 km/h 9.7 km/h 82 % 0.0 mm
04:37 16.6 °C 13.5 °C 1023.2 hPa NNE 3.2 km/h 11.3 km/h 82 % 0.0 mm
04:42 16.5 °C 13.4 °C 1023.2 hPa North 3.2 km/h 11.3 km/h 82 % 0.0 mm
04:47 16.3 °C 13.2 °C 1023.2 hPa NNW 3.2 km/h 9.7 km/h 82 % 0.0 mm
04:52 16.2 °C 13.1 °C 1023.2 hPa NNW 6.4 km/h 9.7 km/h 82 % 0.0 mm
04:57 16.3 °C 13.2 °C 1023.2 hPa NNW 3.2 km/h 12.9 km/h 82 % 0.0 mm
05:02 16.3 °C 13.2 °C 1023.6 hPa North 4.8 km/h 12.9 km/h 82 % 0.0 mm
05:12 16.2 °C 13.1 °C 1023.6 hPa NNE 3.2 km/h 12.9 km/h 82 % 0.0 mm
05:17 16.1 °C 13.0 °C 1023.6 hPa North 6.4 km/h 9.7 km/h 82 % 0.0 mm
05:22 16.1 °C 13.0 °C 1023.6 hPa North 1.6 km/h 9.7 km/h 82 % 0.0 mm
05:32 15.8 °C 12.9 °C 1023.6 hPa NNE 8.0 km/h 11.3 km/h 83 % 0.0 mm
05:37 15.8 °C 12.9 °C 1023.6 hPa NW 1.6 km/h 11.3 km/h 83 % 0.0 mm
05:42 15.8 °C 12.9 °C 1023.6 hPa NNW 3.2 km/h 11.3 km/h 83 % 0.0 mm
05:52 15.8 °C 12.9 °C 1023.6 hPa WNW 1.6 km/h 11.3 km/h 83 % 0.0 mm
05:57 15.7 °C 12.8 °C 1023.6 hPa NNW 6.4 km/h 9.7 km/h 83 % 0.0 mm
06:02 15.6 °C 12.9 °C 1023.6 hPa NW 1.6 km/h 9.7 km/h 84 % 0.0 mm
06:12 15.3 °C 12.8 °C 1023.9 hPa NW 1.6 km/h 9.7 km/h 85 % 0.0 mm
06:17 15.2 °C 12.7 °C 1023.9 hPa Calm   8.0 km/h 85 % 0.0 mm
06:22 15.2 °C 12.9 °C 1023.9 hPa NW 4.8 km/h 8.0 km/h 86 % 0.0 mm
06:32 15.1 °C 13.0 °C 1024.3 hPa Calm   4.8 km/h 87 % 0.0 mm
06:42 15.2 °C 12.9 °C 1024.3 hPa NNE 3.2 km/h 4.8 km/h 86 % 0.0 mm
06:47 15.2 °C 12.9 °C 1024.3 hPa NW 4.8 km/h 6.4 km/h 86 % 0.0 mm
06:52 15.2 °C 12.9 °C 1024.6 hPa NE 1.6 km/h 6.4 km/h 86 % 0.0 mm
07:02 15.1 °C 12.6 °C 1024.6 hPa North 4.8 km/h 11.3 km/h 85 % 0.0 mm
07:12 15.0 °C 12.3 °C 1024.6 hPa NNW 8.0 km/h 12.9 km/h 84 % 0.0 mm
07:17 15.0 °C 12.3 °C 1024.6 hPa NNE 3.2 km/h 11.3 km/h 84 % 0.0 mm
07:22 15.0 °C 12.3 °C 1024.6 hPa NNW 4.8 km/h 11.3 km/h 84 % 0.0 mm
07:27 15.1 °C 12.4 °C 1024.9 hPa NNW 6.4 km/h 11.3 km/h 84 % 0.0 mm
07:32 15.2 °C 12.3 °C 1024.9 hPa NNW 6.4 km/h 17.7 km/h 83 % 0.0 mm
07:42 15.4 °C 12.3 °C 1024.9 hPa NNE 1.6 km/h 17.7 km/h 82 % 0.0 mm
07:52 15.6 °C 12.4 °C 1024.9 hPa NNE 3.2 km/h 11.3 km/h 81 % 0.0 mm
07:57 15.4 °C 12.2 °C 1025.3 hPa NNW 4.8 km/h 11.3 km/h 81 % 0.0 mm
08:02 15.4 °C 12.2 °C 1025.3 hPa NNW 3.2 km/h 11.3 km/h 81 % 0.0 mm
08:12 15.3 °C 12.1 °C 1025.6 hPa NNE 9.7 km/h 11.3 km/h 81 % 0.0 mm
08:17 15.3 °C 11.9 °C 1025.6 hPa WNW 3.2 km/h 17.7 km/h 80 % 0.0 mm
08:22 15.3 °C 11.7 °C 1025.6 hPa NNW 8.0 km/h 17.7 km/h 79 % 0.0 mm
08:32 15.4 °C 11.6 °C 1025.6 hPa NNW 6.4 km/h 14.5 km/h 78 % 0.0 mm
08:42 15.7 °C 11.7 °C 1025.6 hPa NNW 3.2 km/h 12.9 km/h 77 % 0.0 mm
08:52 15.9 °C 11.5 °C 1025.6 hPa NNE 1.6 km/h 11.3 km/h 75 % 0.0 mm
09:02 16.1 °C 11.5 °C 1025.6 hPa NNE 6.4 km/h 12.9 km/h 74 % 0.0 mm
09:12 16.2 °C 11.1 °C 1025.6 hPa NNE 6.4 km/h 11.3 km/h 72 % 0.0 mm
09:17 16.3 °C 11.2 °C 1025.6 hPa NE 4.8 km/h 9.7 km/h 72 % 0.0 mm
09:22 16.4 °C 11.1 °C 1025.6 hPa ENE 4.8 km/h 9.7 km/h 71 % 0.0 mm
09:32 16.9 °C 11.2 °C 1025.6 hPa ENE 1.6 km/h 9.7 km/h 69 % 0.0 mm
09:42 17.7 °C 11.5 °C 1026.0 hPa Calm   9.7 km/h 67 % 0.0 mm
09:47 18.2 °C 11.3 °C 1026.0 hPa Calm   6.4 km/h 64 % 0.0 mm
09:52 18.1 °C 10.9 °C 1026.0 hPa West 3.2 km/h 4.8 km/h 63 % 0.0 mm
09:57 18.1 °C 10.9 °C 1026.0 hPa WSW 1.6 km/h 6.4 km/h 63 % 0.0 mm
10:02 18.2 °C 11.3 °C 1026.0 hPa WSW 3.2 km/h 8.0 km/h 64 % 0.0 mm
10:12 19.1 °C 11.6 °C 1026.0 hPa North 3.2 km/h 8.0 km/h 62 % 0.0 mm
10:17 19.3 °C 10.3 °C 1026.0 hPa West 3.2 km/h 6.4 km/h 56 % 0.0 mm
10:22 19.1 °C 10.1 °C 1026.0 hPa WNW 4.8 km/h 8.0 km/h 56 % 0.0 mm
10:27 19.1 °C 10.6 °C 1026.0 hPa Calm   9.7 km/h 58 % 0.0 mm
10:32 19.4 °C 10.4 °C 1026.0 hPa WNW 1.6 km/h 9.7 km/h 56 % 0.0 mm
10:42 19.3 °C 10.8 °C 1026.3 hPa WSW 1.6 km/h 9.7 km/h 58 % 0.0 mm
10:52 19.3 °C 11.3 °C 1026.3 hPa WNW 6.4 km/h 11.3 km/h 60 % 0.0 mm
11:02 19.3 °C 11.1 °C 1026.0 hPa WNW 6.4 km/h 14.5 km/h 59 % 0.0 mm
11:07 19.4 °C 10.9 °C 1026.0 hPa NW 1.6 km/h 11.3 km/h 58 % 0.0 mm
11:12 19.6 °C 11.4 °C 1026.0 hPa NNE 3.2 km/h 11.3 km/h 59 % 0.0 mm
11:17 19.7 °C 11.2 °C 1026.0 hPa WNW 6.4 km/h 11.3 km/h 58 % 0.0 mm
11:22 19.9 °C 11.6 °C 1026.0 hPa North 1.6 km/h 9.7 km/h 59 % 0.0 mm
11:32 20.7 °C 12.1 °C 1026.0 hPa WNW 8.0 km/h 9.7 km/h 58 % 0.0 mm
11:42 20.5 °C 12.2 °C 1026.0 hPa NW 6.4 km/h 11.3 km/h 59 % 0.0 mm
11:47 20.6 °C 12.0 °C 1025.6 hPa SW 9.7 km/h 12.9 km/h 58 % 0.0 mm
11:52 20.8 °C 12.2 °C 1025.6 hPa North 9.7 km/h 12.9 km/h 58 % 0.0 mm
11:57 20.9 °C 12.3 °C 1025.6 hPa WNW 3.2 km/h 12.9 km/h 58 % 0.0 mm
12:02 20.8 °C 12.2 °C 1025.6 hPa West 1.6 km/h 12.9 km/h 58 % 0.0 mm
12:12 20.9 °C 12.3 °C 1025.6 hPa West 8.0 km/h 14.5 km/h 58 % 0.0 mm
12:17 21.2 °C 12.9 °C 1025.6 hPa SW 11.3 km/h 14.5 km/h 59 % 0.0 mm
12:22 21.0 °C 12.4 °C 1025.6 hPa Calm   14.5 km/h 58 % 0.0 mm
12:27 21.3 °C 12.7 °C 1025.3 hPa West 9.7 km/h 16.1 km/h 58 % 0.0 mm
12:32 21.7 °C 13.1 °C 1025.3 hPa WNW 1.6 km/h 16.1 km/h 58 % 0.0 mm
12:42 21.4 °C 12.8 °C 1025.6 hPa WNW 1.6 km/h 17.7 km/h 58 % 0.0 mm
12:47 21.6 °C 13.0 °C 1025.6 hPa WNW 11.3 km/h 17.7 km/h 58 % 0.0 mm
12:52 21.7 °C 13.3 °C 1025.6 hPa ENE 3.2 km/h 17.7 km/h 59 % 0.0 mm
13:02 21.9 °C 13.5 °C 1026.0 hPa WNW 11.3 km/h 20.9 km/h 59 % 0.0 mm
13:07 21.9 °C 13.3 °C 1026.0 hPa NW 11.3 km/h 20.9 km/h 58 % 0.0 mm
13:12 21.9 °C 13.5 °C 1026.0 hPa NW 4.8 km/h 20.9 km/h 59 % 0.0 mm
13:17 22.2 °C 13.3 °C 1026.0 hPa NNW 3.2 km/h 17.7 km/h 57 % 0.0 mm
13:22 22.2 °C 13.3 °C 1026.0 hPa North 11.3 km/h 19.3 km/h 57 % 0.0 mm
13:27 22.2 °C 13.3 °C 1026.0 hPa NNW 11.3 km/h 22.5 km/h 57 % 0.0 mm
13:32 21.9 °C 13.3 °C 1026.0 hPa West 14.5 km/h 22.5 km/h 58 % 0.0 mm
13:37 21.9 °C 13.5 °C 1026.0 hPa North 11.3 km/h 22.5 km/h 59 % 0.0 mm
13:42 22.1 °C 12.9 °C 1026.0 hPa NNE 6.4 km/h 17.7 km/h 56 % 0.0 mm
13:47 22.2 °C 13.0 °C 1026.0 hPa WNW 12.9 km/h 17.7 km/h 56 % 0.0 mm
13:57 22.2 °C 11.6 °C 1026.0 hPa West 6.4 km/h 20.9 km/h 51 % 0.0 mm
14:02 22.3 °C 12.0 °C 1026.0 hPa NW 4.8 km/h 20.9 km/h 52 % 0.0 mm
14:07 22.3 °C 11.4 °C 1026.0 hPa WSW 1.6 km/h 20.9 km/h 50 % 0.0 mm
14:12 22.5 °C 10.9 °C 1026.0 hPa NNW 4.8 km/h 14.5 km/h 48 % 0.0 mm
14:17 22.2 °C 10.7 °C 1026.0 hPa WNW 3.2 km/h 19.3 km/h 48 % 0.0 mm
14:22 22.4 °C 10.5 °C 1026.0 hPa NNW 8.0 km/h 19.3 km/h 47 % 0.0 mm
14:27 22.6 °C 9.4 °C 1026.0 hPa WNW 6.4 km/h 19.3 km/h 43 % 0.0 mm
14:32 22.3 °C 9.8 °C 1026.0 hPa NNW 6.4 km/h 17.7 km/h 45 % 0.0 mm
14:37 22.3 °C 9.1 °C 1026.0 hPa NE 1.6 km/h 17.7 km/h 43 % 0.0 mm
14:42 22.4 °C 9.2 °C 1026.0 hPa WNW 4.8 km/h 16.1 km/h 43 % 0.0 mm
14:47 22.4 °C 9.9 °C 1026.0 hPa WNW 8.0 km/h 19.3 km/h 45 % 0.0 mm
14:52 22.4 °C 10.2 °C 1026.0 hPa NW 3.2 km/h 19.3 km/h 46 % 0.0 mm
14:57 22.4 °C 9.9 °C 1026.0 hPa West 1.6 km/h 19.3 km/h 45 % 0.0 mm
15:02 22.8 °C 10.9 °C 1026.0 hPa West 6.4 km/h 16.1 km/h 47 % 0.0 mm
15:07 22.9 °C 10.3 °C 1026.0 hPa WNW 4.8 km/h 17.7 km/h 45 % 0.0 mm
15:12 22.7 °C 9.8 °C 1026.0 hPa WNW 11.3 km/h 17.7 km/h 44 % 0.0 mm
15:17 22.7 °C 11.4 °C 1026.0 hPa NNE 8.0 km/h 22.5 km/h 49 % 0.0 mm
15:22 22.9 °C 11.0 °C 1026.0 hPa WNW 9.7 km/h 22.5 km/h 47 % 0.0 mm
15:27 22.8 °C 9.9 °C 1026.0 hPa NW 6.4 km/h 22.5 km/h 44 % 0.0 mm
15:32 22.8 °C 9.9 °C 1026.0 hPa NNW 8.0 km/h 19.3 km/h 44 % 0.0 mm
15:37 22.8 °C 10.2 °C 1026.0 hPa NW 11.3 km/h 19.3 km/h 45 % 0.0 mm
15:42 22.9 °C 10.0 °C 1026.0 hPa Calm   14.5 km/h 44 % 0.0 mm
15:47 23.1 °C 10.5 °C 1026.0 hPa NW 1.6 km/h 14.5 km/h 45 % 0.0 mm
15:52 23.0 °C 10.4 °C 1026.0 hPa WNW 17.7 km/h 19.3 km/h 45 % 0.0 mm
15:57 22.8 °C 10.6 °C 1026.0 hPa NNW 1.6 km/h 20.9 km/h 46 % 0.0 mm
16:02 22.8 °C 10.9 °C 1026.0 hPa West 1.6 km/h 20.9 km/h 47 % 0.0 mm
16:07 22.8 °C 9.2 °C 1026.0 hPa NNW 3.2 km/h 20.9 km/h 42 % 0.0 mm
16:12 22.9 °C 9.7 °C 1026.0 hPa NNW 8.0 km/h 24.1 km/h 43 % 0.0 mm
16:17 23.3 °C 10.4 °C 1026.0 hPa NNW 8.0 km/h 24.1 km/h 44 % 0.0 mm
16:22 23.4 °C 9.8 °C 1026.0 hPa West 12.9 km/h 16.1 km/h 42 % 0.0 mm
16:27 23.2 °C 10.6 °C 1026.0 hPa WNW 6.4 km/h 20.9 km/h 45 % 0.0 mm
16:32 23.3 °C 11.0 °C 1026.0 hPa WNW 9.7 km/h 20.9 km/h 46 % 0.0 mm
16:37 23.6 °C 10.3 °C 1026.0 hPa WNW 8.0 km/h 20.9 km/h 43 % 0.0 mm
16:42 23.5 °C 10.9 °C 1026.0 hPa North 3.2 km/h 20.9 km/h 45 % 0.0 mm
16:47 23.5 °C 10.2 °C 1026.0 hPa NNE 1.6 km/h 20.9 km/h 43 % 0.0 mm
16:52 23.6 °C 10.3 °C 1025.6 hPa WNW 16.1 km/h 20.9 km/h 43 % 0.0 mm
16:57 23.5 °C 9.8 °C 1025.6 hPa WNW 11.3 km/h 19.3 km/h 42 % 0.0 mm
17:02 23.6 °C 11.0 °C 1025.6 hPa NNW 9.7 km/h 19.3 km/h 45 % 0.0 mm
17:07 23.6 °C 10.6 °C 1026.0 hPa NE 3.2 km/h 19.3 km/h 44 % 0.0 mm
17:12 23.7 °C 10.4 °C 1025.6 hPa WNW 6.4 km/h 14.5 km/h 43 % 0.0 mm
17:17 23.4 °C 10.5 °C 1026.0 hPa NNW 6.4 km/h 17.7 km/h 44 % 0.0 mm
17:22 23.5 °C 10.9 °C 1025.6 hPa NNW 4.8 km/h 17.7 km/h 45 % 0.0 mm
17:27 23.4 °C 10.1 °C 1026.0 hPa NNW 14.5 km/h 22.5 km/h 43 % 0.0 mm
17:32 23.5 °C 9.5 °C 1026.0 hPa NW 3.2 km/h 22.5 km/h 41 % 0.0 mm
17:37 23.7 °C 10.4 °C 1026.0 hPa WNW 1.6 km/h 22.5 km/h 43 % 0.0 mm
17:42 23.7 °C 10.7 °C 1025.6 hPa NW 8.0 km/h 17.7 km/h 44 % 0.0 mm
17:47 23.6 °C 9.9 °C 1025.6 hPa NNW 17.7 km/h 19.3 km/h 42 % 0.0 mm
17:52 23.5 °C 10.5 °C 1025.6 hPa North 11.3 km/h 19.3 km/h 44 % 0.0 mm
17:57 23.5 °C 10.2 °C 1025.6 hPa WNW 3.2 km/h 20.9 km/h 43 % 0.0 mm
18:02 23.4 °C 10.1 °C 1025.6 hPa NW 6.4 km/h 20.9 km/h 43 % 0.0 mm
18:07 23.4 °C 10.5 °C 1025.6 hPa NNW 9.7 km/h 20.9 km/h 44 % 0.0 mm
18:12 23.4 °C 10.5 °C 1025.6 hPa NNE 11.3 km/h 17.7 km/h 44 % 0.0 mm
18:17 23.3 °C 10.7 °C 1025.6 hPa NW 8.0 km/h 17.7 km/h 45 % 0.0 mm
18:22 23.6 °C 11.3 °C 1026.0 hPa NW 6.4 km/h 17.7 km/h 46 % 0.0 mm
18:32 23.4 °C 10.5 °C 1026.0 hPa NW 8.0 km/h 17.7 km/h 44 % 0.0 mm
18:42 23.2 °C 10.6 °C 1025.6 hPa NNE 9.7 km/h 19.3 km/h 45 % 0.0 mm
18:47 23.5 °C 10.5 °C 1025.6 hPa NNW 4.8 km/h 19.3 km/h 44 % 0.0 mm
18:52 23.6 °C 10.3 °C 1026.0 hPa NNW 4.8 km/h 17.7 km/h 43 % 0.0 mm
18:57 23.5 °C 10.9 °C 1025.6 hPa North 12.9 km/h 16.1 km/h 45 % 0.0 mm
19:02 23.2 °C 10.6 °C 1025.6 hPa NNW 9.7 km/h 27.4 km/h 45 % 0.0 mm
19:07 23.0 °C 10.8 °C 1026.0 hPa NNW 12.9 km/h 27.4 km/h 46 % 0.0 mm
19:12 22.9 °C 10.7 °C 1026.0 hPa NNE 3.2 km/h 27.4 km/h 46 % 0.0 mm
19:17 22.9 °C 11.0 °C 1025.6 hPa NNE 14.5 km/h 19.3 km/h 47 % 0.0 mm
19:22 22.8 °C 10.9 °C 1025.6 hPa NE 6.4 km/h 19.3 km/h 47 % 0.0 mm
19:27 22.7 °C 10.8 °C 1025.6 hPa NNE 12.9 km/h 20.9 km/h 47 % 0.0 mm
19:32 22.8 °C 10.6 °C 1026.0 hPa NNE 9.7 km/h 20.9 km/h 46 % 0.0 mm
19:37 22.8 °C 10.9 °C 1026.0 hPa North 11.3 km/h 19.3 km/h 47 % 0.0 mm
19:42 22.8 °C 10.9 °C 1026.0 hPa NNE 6.4 km/h 17.7 km/h 47 % 0.0 mm
19:47 22.8 °C 10.9 °C 1026.0 hPa NNW 14.5 km/h 16.1 km/h 47 % 0.0 mm
19:52 22.6 °C 11.0 °C 1026.0 hPa NNE 9.7 km/h 19.3 km/h 48 % 0.0 mm
19:57 22.6 °C 11.3 °C 1026.0 hPa North 17.7 km/h 20.9 km/h 49 % 0.0 mm
20:02 22.4 °C 10.8 °C 1026.0 hPa NNE 12.9 km/h 20.9 km/h 48 % 0.0 mm
20:12 22.3 °C 11.4 °C 1026.0 hPa NNE 6.4 km/h 20.9 km/h 50 % 0.0 mm
20:17 22.2 °C 11.0 °C 1026.0 hPa NNW 6.4 km/h 12.9 km/h 49 % 0.0 mm
20:22 22.0 °C 11.1 °C 1026.0 hPa NE 11.3 km/h 16.1 km/h 50 % 0.0 mm
20:27 21.9 °C 11.3 °C 1026.3 hPa NE 6.4 km/h 16.1 km/h 51 % 0.0 mm
20:32 21.8 °C 11.2 °C 1026.3 hPa NNW 6.4 km/h 16.1 km/h 51 % 0.0 mm
20:37 21.8 °C 11.5 °C 1026.3 hPa North 8.0 km/h 24.1 km/h 52 % 0.0 mm
20:47 21.6 °C 11.3 °C 1026.3 hPa NE 3.2 km/h 24.1 km/h 52 % 0.0 mm
20:52 21.5 °C 11.2 °C 1026.3 hPa North 4.8 km/h 16.1 km/h 52 % 0.0 mm
20:57 21.4 °C 11.4 °C 1026.3 hPa NE 6.4 km/h 16.1 km/h 53 % 0.0 mm
21:02 21.2 °C 11.2 °C 1026.3 hPa NNE 6.4 km/h 14.5 km/h 53 % 0.0 mm
21:07 21.0 °C 11.1 °C 1026.3 hPa North 4.8 km/h 14.5 km/h 53 % 0.0 mm
21:12 20.9 °C 11.2 °C 1026.3 hPa North 4.8 km/h 14.5 km/h 54 % 0.0 mm
21:17 20.8 °C 11.2 °C 1026.3 hPa NNE 4.8 km/h 12.9 km/h 54 % 0.0 mm
21:22 20.6 °C 11.2 °C 1026.3 hPa North 3.2 km/h 12.9 km/h 55 % 0.0 mm
21:32 20.2 °C 11.4 °C 1026.6 hPa North 3.2 km/h 9.7 km/h 57 % 0.0 mm
21:37 19.9 °C 11.4 °C 1026.6 hPa NE 1.6 km/h 9.7 km/h 58 % 0.0 mm
21:42 19.7 °C 11.5 °C 1026.6 hPa North 3.2 km/h 6.4 km/h 59 % 0.0 mm
21:47 19.4 °C 11.4 °C 1026.6 hPa North 1.6 km/h 6.4 km/h 60 % 0.0 mm
21:52 19.3 °C 11.3 °C 1026.6 hPa Calm   6.4 km/h 60 % 0.0 mm
21:57 19.2 °C 11.5 °C 1026.6 hPa NNW 1.6 km/h 6.4 km/h 61 % 0.0 mm
22:02 19.1 °C 11.4 °C 1026.6 hPa Calm   4.8 km/h 61 % 0.0 mm
22:07 18.9 °C 11.5 °C 1026.6 hPa Calm   3.2 km/h 62 % 0.0 mm
22:12 18.8 °C 11.4 °C 1026.6 hPa NNW 1.6 km/h 3.2 km/h 62 % 0.0 mm
22:17 18.6 °C 11.4 °C 1027.0 hPa North 3.2 km/h 3.2 km/h 63 % 0.0 mm
22:22 18.4 °C 11.5 °C 1027.0 hPa Calm   3.2 km/h 64 % 0.0 mm
22:32 18.1 °C 11.4 °C 1027.0 hPa Calm   3.2 km/h 65 % 0.0 mm
22:37 18.0 °C 11.6 °C 1027.0 hPa NNW 1.6 km/h 3.2 km/h 66 % 0.0 mm
22:42 17.8 °C 11.4 °C 1027.0 hPa Calm   3.2 km/h 66 % 0.0 mm
22:52 17.4 °C 11.4 °C 1027.0 hPa North 1.6 km/h 1.6 km/h 68 % 0.0 mm
22:57 17.2 °C 11.5 °C 1027.0 hPa Calm   1.6 km/h 69 % 0.0 mm
23:02 17.1 °C 11.4 °C 1027.3 hPa Calm   1.6 km/h 69 % 0.0 mm
23:07 17.0 °C 11.3 °C 1027.3 hPa Calm   1.6 km/h 69 % 0.0 mm
23:12 16.9 °C 11.4 °C 1027.3 hPa Calm   1.6 km/h 70 % 0.0 mm
23:17 16.8 °C 11.3 °C 1027.3 hPa Calm   1.6 km/h 70 % 0.0 mm
23:22 16.7 °C 11.4 °C 1027.3 hPa Calm   1.6 km/h 71 % 0.0 mm
23:32 16.5 °C 11.4 °C 1027.3 hPa NW 1.6 km/h 3.2 km/h 72 % 0.0 mm
23:37 16.4 °C 11.3 °C 1027.3 hPa Calm   3.2 km/h 72 % 0.0 mm
23:42 16.3 °C 11.5 °C 1027.3 hPa Calm   3.2 km/h 73 % 0.0 mm
23:47 16.2 °C 11.4 °C 1027.3 hPa WNW 1.6 km/h 3.2 km/h 73 % 0.0 mm
23:52 16.2 °C 11.4 °C 1027.3 hPa Calm   3.2 km/h 73 % 0.0 mm
23:57 16.2 °C 11.4 °C 1027.3 hPa Calm   3.2 km/h 73 % 0.0 mm
Meteo18
Compliments of Weather Underground - 4 mb

Script developed by  Jim McMurry - jmcmurry@mwt.net Adapted for the template by  Wim van der Kuil - Leuven-Template.eu

You find our weather info also at:

European Weather Network

Weather Underground

Equipment we use:

Weather-station
Davis Vue

Weather-program
Meteohub

Weather-server
Raspberry PI 2 B+

Provider
1 and 1

Davis Vue

Meteohub

Raspberry PI 2 B+

1 and 1